World > North America > United States > North Carolina > Walstonburg  

Walstonburg, NC Hourly Weather Updates

Feedback E-mail the Weather

Quick Clicks

Walstonburg, NC Weather Maps

°F °C°F °C
Walstonburg Weather Map
UTC Time: 6/15/2024, 17:02
Your Time:

Walstonburg, NC Regional Weather

Expires:202406151700;;065151
ASUS42 KMHX 151615
RWRMHX
WEATHER ROUNDUP FOR EASTERN NORTH CAROLINA
NATIONAL WEATHER SERVICE NEWPORT/MOREHEAD CITY NC
1200 PM EDT SAT JUN 15 2024

NOTE: "FAIR" INDICATES FEW OR NO CLOUDS BELOW 12,000 FEET
WITH NO SIGNIFICANT WEATHER AND/OR OBSTRUCTIONS TO VISIBILITY


NCZ011>013-027>030-043-044-078>080-089-090>093-098-151700-
COASTAL PLAIN
  
CITY           SKY/WX    TMP DP  RH WIND       PRES   REMARKS
AHOSKIE        SUNNY     83  65  55 N10       30.02R                  
TARBORO        SUNNY     84  67  54 N8        30.02R                  
WILLIAMSTON    SUNNY     87  67  51 N13       30.01R                  
ROCKY MOUNT    SUNNY     86  70  58 N12       30.02R                  
GREENVILLE     SUNNY     88  64  45 NE12      30.00S                  
WASHINGTON     PTSUNNY   86  65  48 N10       30.00S                  
GOLDSBORO      SUNNY     86  66  51 N12       30.00F                  
KINSTON        MOSUNNY   88  66  48 NE9       30.00S                  
MOUNT OLIVE    MOSUNNY   87  66  50 N8        30.00S                  
NEW BERN       SUNNY     88  68  51 VRB6      29.99R                  
KENANSVILLE    PTSUNNY   88  68  51 N9        30.00S                  
RICHLANDS      MOSUNNY   88  68  51 VRB7      29.99S                  
WALLACE        SUNNY     89  69  50 NE7       29.98S                  
CLINTON        MOSUNNY   89  69  52 N7        30.01R                  
ELIZABETHTOWN  MOSUNNY   90  68  47 N7        29.99S                  
WHITEVILLE     SUNNY     89  69  51 CALM      30.00R HAZE             

$$


SKY/WX - Weather  TMP - Temperature  DP - Dew Point  RH - Humidity
WIND - Wind Direction/Speed PRES - Barometric Pressure VSB - Visibility
WCI - Wind Chill Index E13G22 Wind - East Wind 13 mph/Gusts of 22 mph

Trending Headlines

Trending Entertainment Headlines

Walstonburg Radar Loop

Use the map search tool if you want to place a location marker on the radar map...

Walstonburg Quick Facts

National Two Day Weather Forecast


E-mail the Walstonburg Weather Forecast

Voice your opinion or tell us about page issues...